Location: Unspecified
(50.7693°N, 0.0000°E)
Time: 18:02:36
(UTC+00:00)

deb Explorer IX - Pass Details

Date: 27 June 2019
Orbit: 539 x 1111 km, 38.8° (Epoch: 16 August)

Event Time Altitude Azimuth Distance (km) Brightness Sun altitude
Rises 13:13:33 0° 241° (WSW) 3,685 ? 59.3°
Reaches altitude 10° 13:16:26 10° 231° (SW) 2,810 ? 59.1°
Maximum altitude 13:22:19 30° 173° (S) 1,818 ? 58.5°
Drops below altitude 10° 13:28:32 10° 115° (ESE) 2,972 ? 57.9°
Sets 13:31:39 0° 106° (ESE) 3,929 ? 57.6°
